Location: Rotheul
(50.2849°N, 11.2349°E)
Time: 21:48:08
(UTC+02:00)

ISS - Pass Details

Date: 16 July 2018
Orbit: 402 x 408 km, 51.6° (Epoch: 17 July)

Event Time Altitude Azimuth Distance (km) Brightness Sun altitude
Exits shadow 02:31:55 17° 266° (W) 1,099 -1.9 -16.6°
Maximum altitude 02:34:18 75° 351° (N) 426 -3.7 -16.5°
Drops below altitude 10° 02:37:36 10° 77° (ENE) 1,471 -0.6 -16.3°
Sets 02:39:41 0° 79° (E) 2,334 0.5 -16.2°
